EW5449 Weather Reports


time (UTC)temp
C
wind
direction
speed
KPH
gust
KPH
rain 1hr
cm
rain 24hr
cm
rain mn
cm
humidity
%
barometer
mb
20260504081523 7 189 0.0 3.2 0.00 0.00 0.00 64 1014.7
20260504044549 6 197 0.0 0.0 0.00 0.00 0.00 73 1015.4
20260504043047 6 197 0.0 0.0 0.00 0.00 0.00 70 1015.4
20260504041545 6 197 0.0 0.0 0.00 0.00 0.00 68 1015.5
20260504040042 6 197 0.0 3.2 0.00 0.00 0.00 70 1015.6
20260504034546 6 197 0.0 0.0 0.00 0.00 0.00 76 1015.4
20260504033041 7 197 0.0 0.0 0.00 0.00 0.00 75 1015.1
20260504031539 7 197 0.0 0.0 0.00 0.00 0.00 73 1015.1
20260504030042 7 197 0.0 0.0 0.00 0.00 0.00 73 1015.2
20260504024538 8 197 0.0 0.0 0.00 0.00 0.00 71 1015.2
20260504023036 8 197 0.0 0.0 0.00 0.00 0.00 68 1015.1
20260504021536 8 197 0.0 0.0 0.00 0.00 0.00 68 1015.0
20260504020037 9 197 0.0 0.0 0.00 0.00 0.00 61 1014.7
20260504014543 10 197 0.0 0.0 0.00 0.00 0.00 55 1014.6
20260504013034 10 197 0.0 0.0 0.00 0.00 0.00 51 1014.4
20260504011532 11 197 0.0 0.0 0.00 0.00 0.00 46 1014.2
20260504010031 12 197 0.0 0.0 0.00 0.00 0.00 45 1014.2
20260504004531 13 197 0.0 0.0 0.00 0.00 0.00 43 1014.1
20260504003030 13 197 0.0 0.0 0.00 0.00 0.00 41 1014.1
20260504001530 15 197 0.0 0.0 0.00 0.00 0.00 37 1014.1
20260504000029 15 197 0.0 3.2 0.00 0.00 0.00 33 1014.0
20260503234542 15 164 0.0 3.2 0.00 0.00 0.00 31 1014.0
20260503233028 16 138 0.0 4.8 0.00 0.00 0.00 31 1013.9
20260503231528 16 210 0.0 6.4 0.00 0.00 0.00 30 1013.8
20260503230039 16 207 0.0 11.3 0.00 0.00 0.00 28 1013.7
20260503224525 16 297 0.0 6.4 0.00 0.00 0.00 30 1013.7
20260503223024 16 247 1.6 8.0 0.00 0.00 0.00 29 1013.6
20260503221524 17 294 1.6 6.4 0.00 0.00 0.00 28 1013.7
20260503220038 17 213 1.6 11.3 0.00 0.00 0.00 28 1013.9
20260503214521 17 269 1.6 8.0 0.00 0.00 0.00 28 1013.9
20260503213024 17 202 1.6 8.0 0.00 0.00 0.00 27 1013.9
20260503211521 17 205 1.6 24.1 0.00 0.00 0.00 27 1013.9
20260503210018 17 176 1.6 8.0 0.00 0.00 0.00 29 1014.0
20260503204518 17 198 0.0 12.9 0.00 0.00 0.00 28 1013.9
20260503203027 17 199 1.6 6.4 0.00 0.00 0.00 27 1014.0
20260503201518 17 213 3.2 9.7 0.00 0.00 0.00 29 1014.4
20260503200012 16 207 1.6 9.7 0.00 0.00 0.00 29 1014.3
20260503194511 16 203 0.0 11.3 0.00 0.00 0.00 30 1014.5
20260503193012 16 188 0.0 6.4 0.00 0.00 0.00 29 1014.9
20260503191518 16 288 1.6 11.3 0.00 0.00 0.00 29 1015.2
20260503190007 16 350 1.6 14.5 0.00 0.00 0.00 29 1015.3
20260503184505 15 202 0.0 8.0 0.00 0.00 0.00 31 1015.5
20260503183002 15 239 1.6 9.7 0.00 0.00 0.00 31 1015.6
20260503181501 15 313 1.6 8.0 0.00 0.00 0.00 31 1015.7
20260503180100 15 332 1.6 12.9 0.00 0.00 0.00 31 1015.7
20260503174558 14 205 1.6 11.3 0.00 0.00 0.00 33 1015.9
20260503173101 13 333 3.2 12.9 0.00 0.00 0.00 32 1016.2
20260503171553 13 271 1.6 12.9 0.00 0.00 0.00 33 1016.2